Location: *
(43.6428°N, 11.5461°E)
Time: 05:17:56
(UTC+00:00)

Cosmos 44 - Pass Details

Date: 21 October 2019
Orbit: 592 x 769 km, 65.1° (Epoch: 13 November)

Event Time Altitude Azimuth Distance (km) Brightness Sun altitude
Rises 19:02:45 0° 233° (SW) 3,103 7.2 -29.7°
Reaches altitude 10° 19:05:17 10° 241° (WSW) 2,157 6.3 -30.2°
Enters shadow 19:09:45 40° 306° (NW) 997 4.4 -31.0°
